GW0881 Weather Reports


Display with metric or nautical units.
time (UTC)temp
F
wind
direction
speed
MPH
gust
MPH
rain 1hr
in
rain 24hr
in
rain mn
in
humidity
%
barometer
mb
20260508100755 42 217 0.0 0.0 0.00 0.00 0.00 54 1006.5
20260508100254 42 209 0.0 0.0 0.00 0.00 0.00 54 1006.3
20260508095749 42 216 0.0 0.0 0.00 0.00 0.00 54 1006.3
20260508095247 42 212 0.0 0.0 0.00 0.00 0.00 54 1006.5
20260508094743 42 218 0.0 0.0 0.00 0.00 0.00 53 1006.5
20260508094241 43 212 0.0 0.0 0.00 0.00 0.00 53 1006.4
20260508093737 43 216 0.0 0.0 0.00 0.00 0.00 52 1006.4
20260508093235 43 213 0.0 0.0 0.00 0.00 0.00 52 1006.6
20260508092732 43 214 0.0 1.0 0.00 0.00 0.00 52 1006.4
20260508092230 43 212 0.0 0.0 0.00 0.00 0.00 52 1006.4
20260508091728 43 217 0.0 1.0 0.00 0.00 0.00 52 1006.4
20260508091224 43 217 0.0 0.0 0.00 0.00 0.00 51 1006.4
20260508090722 43 219 0.0 1.0 0.00 0.00 0.00 51 1006.5
20260508090220 43 222 0.0 0.0 0.00 0.00 0.00 51 1006.6
20260508085715 43 217 0.0 0.0 0.00 0.00 0.00 51 1006.6
20260508085213 44 218 0.0 0.0 0.00 0.00 0.00 51 1006.4
20260508084709 44 217 0.0 0.0 0.00 0.00 0.00 51 1006.5
20260508084207 44 219 0.0 0.0 0.00 0.00 0.00 51 1006.6
20260508083704 44 221 1.0 1.0 0.00 0.00 0.00 51 1006.5
20260508083201 44 226 0.0 1.0 0.00 0.00 0.00 51 1006.7
20260508082656 44 208 0.0 0.0 0.00 0.00 0.00 52 1006.6
20260508082153 44 218 0.0 0.0 0.00 0.00 0.00 53 1006.6
20260508081651 44 217 0.0 0.0 0.00 0.00 0.00 53 1006.5
20260508081147 44 217 0.0 0.0 0.00 0.00 0.00 53 1006.5
20260508080645 44 225 1.0 1.0 0.00 0.00 0.00 53 1006.5
20260508080143 44 216 0.0 0.0 0.00 0.00 0.00 53 1006.7
20260508075639 44 216 0.0 0.0 0.00 0.00 0.00 53 1006.6
20260508075136 44 218 0.0 0.0 0.00 0.00 0.00 54 1006.6
20260508074634 44 217 1.0 1.0 0.00 0.00 0.00 53 1006.7
20260508074131 44 219 0.0 1.0 0.00 0.00 0.00 53 1006.7
20260508073628 44 216 0.0 0.0 0.00 0.00 0.00 53 1006.8
20260508073126 44 221 0.0 0.0 0.00 0.00 0.00 54 1006.8
20260508072621 45 218 0.0 0.0 0.00 0.00 0.00 54 1006.8
20260508072118 44 211 1.0 1.0 0.00 0.00 0.00 55 1006.6
20260508071616 44 217 0.0 0.0 0.00 0.00 0.00 55 1006.9
20260508071114 44 220 0.0 0.0 0.00 0.00 0.00 56 1007.0
20260508070611 44 220 0.0 1.0 0.00 0.00 0.00 55 1006.9
20260508070110 44 217 0.0 1.0 0.00 0.00 0.00 54 1006.9
20260508065606 44 210 0.0 1.0 0.00 0.00 0.00 53 1006.8
20260508065104 44 213 0.0 1.0 0.00 0.00 0.00 53 1007.0
20260508064602 42 215 1.0 1.0 0.00 0.00 0.00 55 1007.0
20260508064100 41 197 1.0 1.0 0.00 0.00 0.00 62 1007.0
20260508063556 41 201 0.0 0.0 0.00 0.00 0.00 61 1007.0
20260508063055 41 201 0.0 1.0 0.00 0.00 0.00 65 1007.0
20260508062552 41 199 0.0 1.0 0.00 0.00 0.00 65 1007.2
20260508062048 42 206 0.0 0.0 0.00 0.00 0.00 63 1007.0
20260508061546 42 197 0.0 1.0 0.00 0.00 0.00 60 1007.0
20260508061043 41 211 0.0 0.0 0.00 0.00 0.00 60 1007.2
20260508060540 40 205 1.0 1.0 0.00 0.00 0.00 68 1007.1
20260508060037 40 206 0.0 0.0 0.00 0.00 0.00 67 1007.4
20260508055532 40 201 0.0 0.0 0.00 0.00 0.00 68 1007.3
20260508055030 40 209 0.0 0.0 0.00 0.00 0.00 68 1007.2
20260508054526 39 207 0.0 0.0 0.00 0.00 0.00 69 1007.4
20260508054024 40 203 0.0 0.0 0.00 0.00 0.00 66 1007.2
20260508053520 40 209 0.0 0.0 0.00 0.00 0.00 67 1007.6
20260508053019 40 204 0.0 0.0 0.00 0.00 0.00 67 1007.4
20260508052515 40 205 0.0 0.0 0.00 0.00 0.00 68 1007.5
20260508052012 40 209 0.0 0.0 0.00 0.00 0.00 69 1007.4
20260508051508 40 214 0.0 0.0 0.00 0.00 0.00 69 1007.4
20260508051003 40 211 0.0 0.0 0.00 0.00 0.00 69 1007.6
20260508050500 40 205 0.0 0.0 0.00 0.00 0.00 67 1007.6
20260508045957 40 208 0.0 0.0 0.00 0.00 0.00 68 1007.6
20260508045454 40 205 0.0 0.0 0.00 0.00 0.00 67 1007.6
20260508044951 40 205 0.0 0.0 0.00 0.00 0.00 67 1007.7
20260508044449 40 208 0.0 0.0 0.00 0.00 0.00 68 1007.6
20260508043944 40 212 1.0 1.0 0.00 0.00 0.00 68 1007.6
20260508043442 40 211 0.0 0.0 0.00 0.00 0.00 67 1007.5
20260508042937 40 211 0.0 1.0 0.00 0.00 0.00 67 1007.8
20260508042436 40 214 0.0 0.0 0.00 0.00 0.00 68 1007.5
20260508041932 40 211 0.0 0.0 0.00 0.00 0.00 68 1007.8
20260508041429 41 212 0.0 0.0 0.00 0.00 0.00 70 1007.6
20260508040926 41 214 0.0 0.0 0.00 0.00 0.00 66 1007.7
20260508040423 41 209 0.0 0.0 0.00 0.00 0.00 64 1007.8
20260508035921 41 208 1.0 1.0 0.00 0.00 0.00 64 1007.8
20260508035417 41 209 0.0 1.0 0.00 0.00 0.00 63 1007.9
20260508034914 41 209 0.0 0.0 0.00 0.00 0.00 63 1007.9
20260508034411 42 209 0.0 1.0 0.00 0.00 0.00 65 1007.9
20260508033908 42 210 0.0 0.0 0.00 0.00 0.00 64 1007.9
20260508033406 42 216 0.0 0.0 0.00 0.00 0.00 64 1008.1
20260508032903 42 210 0.0 0.0 0.00 0.00 0.00 63 1007.9
20260508032401 42 202 0.0 0.0 0.00 0.00 0.00 62 1007.9
20260508031857 43 205 0.0 0.0 0.00 0.00 0.00 61 1008.1
20260508031354 43 207 1.0 1.0 0.00 0.00 0.00 58 1008.2
20260508030850 43 210 0.0 0.0 0.00 0.00 0.00 61 1007.9
20260508030347 43 217 0.0 0.0 0.00 0.00 0.00 62 1008.2
20260508025844 44 207 0.0 0.0 0.00 0.00 0.00 59 1008.1
20260508025341 44 203 0.0 0.0 0.00 0.00 0.00 56 1008.1
20260508024838 44 207 0.0 0.0 0.00 0.00 0.00 58 1008.0
20260508024334 44 209 0.0 0.0 0.00 0.00 0.00 62 1008.0
20260508023832 45 211 0.0 0.0 0.00 0.00 0.00 59 1008.1
20260508023328 45 204 0.0 0.0 0.00 0.00 0.00 56 1008.1
20260508022825 46 203 0.0 1.0 0.00 0.00 0.00 53 1007.9
20260508022321 47 208 1.0 1.0 0.00 0.00 0.00 49 1007.9
20260508021818 47 205 0.0 1.0 0.00 0.00 0.00 52 1007.9
20260508021314 48 204 1.0 1.0 0.00 0.00 0.00 49 1007.9
20260508020810 48 207 0.0 0.0 0.00 0.00 0.00 47 1007.9
20260508020308 46 210 1.0 1.0 0.00 0.00 0.00 51 1007.9
20260508015804 48 222 0.0 1.0 0.00 0.00 0.00 51 1007.8
20260508015305 49 205 0.0 0.0 0.00 0.00 0.00 47 1007.7
20260508014759 50 205 0.0 0.0 0.00 0.00 0.00 44 1007.5
20260508014256 51 205 0.0 0.0 0.00 0.00 0.00 42 1007.6
20260508013751 52 204 0.0 0.0 0.00 0.00 0.00 38 1007.5
20260508013248 53 216 0.0 0.0 0.00 0.00 0.00 37 1007.5
20260508012746 54 219 0.0 0.0 0.00 0.00 0.00 34 1007.5
20260508012242 54 217 1.0 1.0 0.00 0.00 0.00 34 1007.6
20260508011741 55 238 1.0 1.0 0.00 0.00 0.00 33 1007.4
20260508011238 55 249 1.0 1.0 0.00 0.00 0.00 32 1007.3
20260508010735 55 259 1.0 1.0 0.00 0.00 0.00 32 1007.4
20260508010233 56 246 1.0 1.0 0.00 0.00 0.00 32 1007.4
20260508005729 56 278 1.0 2.0 0.00 0.00 0.00 32 1007.2
20260508005226 56 318 3.0 3.0 0.00 0.00 0.00 32 1007.3
20260508004721 56 208 1.0 2.0 0.00 0.00 0.00 32 1007.4
20260508004218 56 249 2.0 2.0 0.00 0.00 0.00 32 1007.2
20260508003715 56 243 1.0 1.0 0.00 0.00 0.00 32 1007.2
20260508003212 56 258 1.0 1.0 0.00 0.00 0.00 32 1007.3
20260508002708 57 266 2.0 2.0 0.00 0.00 0.00 31 1007.4
20260508002206 57 214 2.0 3.0 0.00 0.00 0.00 31 1007.2
20260508001702 57 254 3.0 3.0 0.00 0.00 0.00 30 1007.3
20260508001158 57 296 3.0 5.0 0.00 0.00 0.00 31 1007.2
20260508000654 57 245 1.0 2.0 0.00 0.00 0.00 30 1007.3
20260508000151 57 273 5.0 5.0 0.00 0.00 0.00 29 1007.5
20260507235648 57 258 3.0 3.0 0.00 0.00 0.00 30 1007.2
20260507235145 57 268 3.0 3.0 0.00 0.00 0.00 30 1007.4
20260507234642 57 290 5.0 6.0 0.00 0.00 0.00 29 1007.6
20260507234138 57 286 3.0 3.0 0.00 0.00 0.00 30 1007.4
20260507233635 57 254 2.0 2.0 0.00 0.00 0.00 28 1007.4
20260507233134 57 274 3.0 3.0 0.00 0.00 0.00 29 1007.4
20260507232630 57 291 5.0 6.0 0.00 0.00 0.00 29 1007.5
20260507232127 57 326 3.0 3.0 0.00 0.00 0.00 29 1007.5
20260507231623 57 275 4.0 5.0 0.00 0.00 0.00 29 1007.4
20260507231121 57 282 2.0 2.0 0.00 0.00 0.00 29 1007.5
20260507230617 57 305 5.0 5.0 0.00 0.00 0.00 29 1007.4
20260507230114 57 293 6.0 7.0 0.00 0.00 0.00 28 1007.5
20260507225609 57 326 6.0 7.0 0.00 0.00 0.00 30 1007.6
20260507225106 57 265 5.0 5.0 0.00 0.00 0.00 30 1007.7
20260507224601 57 260 2.0 2.0 0.00 0.00 0.00 30 1007.6
20260507224058 57 262 3.0 3.0 0.00 0.00 0.00 28 1007.8
20260507223554 57 265 3.0 3.0 0.00 0.00 0.00 28 1007.6
20260507223051 57 281 8.0 10.0 0.00 0.00 0.00 27 1007.6
20260507222548 57 322 5.0 6.0 0.00 0.00 0.00 28 1007.6
20260507222045 57 331 5.0 6.0 0.00 0.00 0.00 28 1007.7
20260507221541 57 336 3.0 5.0 0.00 0.00 0.00 29 1008.0
20260507221038 57 286 7.0 8.0 0.00 0.00 0.00 28 1007.9
20260507220535 57 259 2.0 3.0 0.00 0.00 0.00 29 1008.1
20260507220033 57 299 4.0 6.0 0.00 0.00 0.00 28 1008.0
20260507215529 57 299 5.0 6.0 0.00 0.00 0.00 29 1008.0
20260507215027 57 276 5.0 6.0 0.00 0.00 0.00 28 1008.0
20260507214524 58 22 5.0 6.0 0.00 0.00 0.00 28 1008.0
20260507214020 57 274 3.0 5.0 0.00 0.00 0.00 28 1008.1
20260507213516 57 281 3.0 3.0 0.00 0.00 0.00 28 1008.1
20260507213013 56 238 2.0 3.0 0.00 0.00 0.00 28 1008.3
20260507212508 57 265 3.0 3.0 0.00 0.00 0.00 28 1008.2
20260507212006 57 296 5.0 7.0 0.00 0.00 0.00 28 1008.4
20260507211503 56 289 6.0 7.0 0.00 0.00 0.00 29 1008.5
20260507210959 56 246 3.0 5.0 0.00 0.00 0.00 30 1008.5
20260507210456 56 317 10.0 11.0 0.00 0.00 0.00 28 1008.5
20260507205952 56 300 5.0 6.0 0.00 0.00 0.00 30 1008.6
20260507205450 56 282 2.0 2.0 0.00 0.00 0.00 27 1008.5
20260507204946 55 239 3.0 3.0 0.00 0.00 0.00 30 1008.6
20260507204442 55 274 5.0 6.0 0.00 0.00 0.00 29 1008.7
20260507203940 56 308 6.0 8.0 0.00 0.00 0.00 28 1008.9
20260507203438 56 244 2.0 2.0 0.00 0.00 0.00 29 1008.8
20260507202934 55 282 3.0 5.0 0.00 0.00 0.00 30 1009.0
20260507202431 55 270 3.0 5.0 0.00 0.00 0.00 29 1008.8
20260507201926 55 338 5.0 6.0 0.00 0.00 0.00 29 1009.2
20260507201421 55 228 1.0 1.0 0.00 0.00 0.00 28 1009.0
20260507200919 55 253 5.0 6.0 0.00 0.00 0.00 29 1009.2
20260507200414 55 268 6.0 7.0 0.00 0.00 0.00 29 1009.4
20260507195910 54 255 2.0 2.0 0.00 0.00 0.00 29 1009.1
20260507195408 55 267 2.0 3.0 0.00 0.00 0.00 28 1009.3
20260507194905 55 265 4.0 5.0 0.00 0.00 0.00 28 1009.4
20260507194401 54 234 2.0 2.0 0.00 0.00 0.00 28 1009.5
20260507193857 54 285 5.0 6.0 0.00 0.00 0.00 30 1009.3
20260507193355 53 36 6.0 7.0 0.00 0.00 0.00 31 1009.4
20260507192851 54 300 5.0 6.0 0.00 0.00 0.00 29 1009.5
20260507192347 54 344 4.0 5.0 0.00 0.00 0.00 28 1009.3
20260507191844 53 254 3.0 5.0 0.00 0.00 0.00 29 1009.4
20260507191340 54 272 3.0 3.0 0.00 0.00 0.00 31 1009.5
20260507190837 53 285 4.0 6.0 0.00 0.00 0.00 31 1009.9
20260507190336 53 219 4.0 6.0 0.00 0.00 0.00 30 1009.8
20260507185834 53 209 1.0 3.0 0.00 0.00 0.00 30 1009.6
20260507185331 53 280 3.0 3.0 0.00 0.00 0.00 29 1009.6
20260507184828 53 261 4.0 5.0 0.00 0.00 0.00 30 1009.8
20260507184326 53 221 0.0 1.0 0.00 0.00 0.00 30 1009.9
20260507183822 53 260 5.0 6.0 0.00 0.00 0.00 30 1010.0
20260507183319 53 35 5.0 8.0 0.00 0.00 0.00 32 1009.8
20260507182817 53 24 8.0 11.0 0.00 0.00 0.00 32 1009.6
20260507182312 52 202 1.0 2.0 0.00 0.00 0.00 30 1010.0
20260507181809 53 3 2.0 3.0 0.00 0.00 0.00 30 1010.1
20260507181305 52 355 8.0 11.0 0.00 0.00 0.00 32 1009.9
20260507180802 52 6 5.0 6.0 0.00 0.00 0.00 30 1009.9
20260507180259 52 146 2.0 2.0 0.00 0.00 0.00 30 1010.1
20260507175754 51 301 3.0 5.0 0.00 0.00 0.00 31 1010.0
20260507175251 51 21 4.0 7.0 0.00 0.00 0.00 34 1010.2
20260507174748 52 230 4.0 5.0 0.00 0.00 0.00 31 1010.4
20260507174247 51 304 3.0 3.0 0.00 0.00 0.00 32 1010.2
20260507173744 51 41 3.0 3.0 0.00 0.00 0.00 32 1010.4
20260507173241 51 277 3.0 3.0 0.00 0.00 0.00 33 1010.4
20260507172737 51 152 1.0 1.0 0.00 0.00 0.00 33 1010.4
20260507172234 51 278 3.0 5.0 0.00 0.00 0.00 33 1010.5
20260507171734 50 253 0.0 1.0 0.00 0.00 0.00 33 1010.4
20260507171232 50 40 4.0 6.0 0.00 0.00 0.00 33 1010.4
20260507170729 50 355 3.0 5.0 0.00 0.00 0.00 33 1010.7
20260507170226 51 310 5.0 6.0 0.00 0.00 0.00 33 1010.5
20260507165721 50 333 5.0 6.0 0.00 0.00 0.00 32 1010.6
20260507165218 51 216 0.0 1.0 0.00 0.00 0.00 30 1010.7
20260507164714 50 81 4.0 7.0 0.00 0.00 0.00 35 1010.9
20260507164211 49 223 0.0 1.0 0.00 0.00 0.00 34 1010.7
20260507163708 49 288 5.0 5.0 0.00 0.00 0.00 34 1010.9
20260507163206 49 256 0.0 2.0 0.00 0.00 0.00 38 1010.8
20260507162702 49 47 2.0 3.0 0.00 0.00 0.00 37 1010.9
20260507162158 48 216 1.0 1.0 0.00 0.00 0.00 36 1011.0
20260507161654 48 68 1.0 2.0 0.00 0.00 0.00 35 1011.0
20260507161151 49 52 3.0 6.0 0.00 0.00 0.00 35 1011.1
20260507160647 48 215 0.0 0.0 0.00 0.00 0.00 37 1011.3
20260507160144 48 245 2.0 2.0 0.00 0.00 0.00 38 1011.0
20260507155639 47 224 1.0 1.0 0.00 0.00 0.00 35 1011.1
20260507155136 47 41 3.0 3.0 0.00 0.00 0.00 31 1011.1
20260507154633 48 352 3.0 5.0 0.00 0.00 0.00 37 1011.2
20260507154131 47 295 3.0 5.0 0.00 0.00 0.00 41 1011.2
20260507153627 47 224 0.0 1.0 0.00 0.00 0.00 42 1011.2
20260507153123 47 139 1.0 1.0 0.00 0.00 0.00 41 1011.3
20260507152620 46 193 0.0 1.0 0.00 0.00 0.00 43 1011.2
20260507152116 47 216 0.0 1.0 0.00 0.00 0.00 41 1011.1
20260507151612 46 295 3.0 3.0 0.00 0.00 0.00 45 1011.2
20260507151109 46 291 3.0 3.0 0.00 0.00 0.00 43 1011.2
20260507150606 46 239 2.0 2.0 0.00 0.00 0.00 45 1011.1
20260507145558 46 244 2.0 2.0 0.00 0.00 0.00 45 1011.3
20260507145056 46 251 0.0 0.0 0.00 0.00 0.00 45 1011.5
20260507144552 46 261 1.0 1.0 0.00 0.00 0.00 45 1011.4
20260507144050 45 212 0.0 0.0 0.00 0.00 0.00 46 1011.3
20260507143546 44 196 2.0 2.0 0.00 0.00 0.00 47 1011.2
20260507143044 44 212 1.0 1.0 0.00 0.00 0.00 46 1011.4
20260507142539 44 243 1.0 1.0 0.00 0.00 0.00 46 1011.4
20260507142036 44 258 2.0 2.0 0.00 0.00 0.00 48 1011.4
20260507141532 44 205 0.0 0.0 0.00 0.00 0.00 47 1011.5
20260507141029 43 266 3.0 3.0 0.00 0.00 0.00 46 1011.3
20260507140526 43 244 0.0 0.0 0.00 0.00 0.00 49 1011.5
20260507140024 43 292 1.0 2.0 0.00 0.00 0.00 50 1011.7
20260507135520 42 217 0.0 1.0 0.00 0.00 0.00 50 1011.5
20260507135018 42 222 0.0 0.0 0.00 0.00 0.00 53 1011.6
20260507134514 42 251 1.0 1.0 0.00 0.00 0.00 55 1011.5
20260507134009 42 211 2.0 2.0 0.00 0.00 0.00 58 1011.5
20260507133506 42 240 0.0 1.0 0.00 0.00 0.00 59 1011.6
20260507133005 41 268 3.0 3.0 0.00 0.00 0.00 61 1011.6
20260507132500 41 243 1.0 1.0 0.00 0.00 0.00 59 1011.7
20260507131957 41 219 0.0 1.0 0.00 0.00 0.00 61 1011.7
20260507131454 40 263 1.0 1.0 0.00 0.00 0.00 65 1011.7
20260507130951 40 237 1.0 1.0 0.00 0.00 0.00 66 1011.7
20260507130448 39 245 1.0 1.0 0.00 0.00 0.00 68 1011.8
20260507125946 38 235 0.0 1.0 0.00 0.00 0.00 72 1011.5
20260507125444 38 226 0.0 0.0 0.00 0.00 0.00 72 1011.8
20260507124941 37 218 0.0 0.0 0.00 0.00 0.00 73 1011.8
20260507124437 36 217 0.0 0.0 0.00 0.00 0.00 76 1011.7
20260507123936 34 233 0.0 0.0 0.00 0.00 0.00 83 1012.0
20260507123433 32 216 0.0 0.0 0.00 0.00 0.00 90 1011.8
20260507122929 31 209 0.0 0.0 0.00 0.00 0.00 91 1012.0
20260507122424 31 209 0.0 0.0 0.00 0.00 0.00 91 1011.9
20260507121921 30 208 0.0 0.0 0.00 0.00 0.00 92 1011.9
20260507121416 29 209 0.0 0.0 0.00 0.00 0.00 92 1011.8
20260507120913 29 207 0.0 0.0 0.00 0.00 0.00 92 1011.8
20260507120409 29 202 0.0 0.0 0.00 0.00 0.00 91 1011.8
20260507115906 28 207 0.0 0.0 0.00 0.00 0.00 91 1011.8
20260507115402 28 210 0.0 0.0 0.00 0.00 0.00 91 1011.8
20260507114858 27 211 0.0 0.0 0.00 0.00 0.00 91 1011.8
20260507114355 28 212 0.0 0.0 0.00 0.00 0.00 91 1011.7
20260507113852 28 212 0.0 0.0 0.00 0.00 0.00 91 1011.8
20260507113349 27 211 0.0 0.0 0.00 0.00 0.00 91 1011.8
20260507112846 27 212 0.0 0.0 0.00 0.00 0.00 90 1011.9
20260507112343 27 212 0.0 0.0 0.00 0.00 0.00 90 1011.8
20260507111841 28 212 0.0 0.0 0.00 0.00 0.00 90 1011.9
20260507111338 28 211 0.0 0.0 0.00 0.00 0.00 90 1011.7
20260507110834 28 210 0.0 0.0 0.00 0.00 0.00 90 1011.8
20260507110330 28 208 0.0 0.0 0.00 0.00 0.00 89 1011.8
20260507105827 28 210 0.0 0.0 0.00 0.00 0.00 89 1011.9
20260507105324 28 207 0.0 0.0 0.00 0.00 0.00 89 1011.8
20260507104821 28 205 0.0 0.0 0.00 0.00 0.00 89 1011.8
20260507104317 28 211 0.0 0.0 0.00 0.00 0.00 87 1011.8
20260507103813 28 210 0.0 0.0 0.00 0.00 0.00 87 1011.9
20260507103309 29 208 0.0 0.0 0.00 0.00 0.00 87 1011.9
20260507102806 29 207 0.0 0.0 0.00 0.00 0.00 86 1011.8
20260507102306 29 202 0.0 0.0 0.00 0.00 0.00 86 1011.8
20260507101759 29 203 0.0 0.0 0.00 0.00 0.00 86 1012.0
20260507101254 29 204 0.0 0.0 0.00 0.00 0.00 86 1011.8